Cross City, FL

6:39 AM EST on December 16, 2019 (GMT -0500)
Cross City

Weather History for KCTY - October, 2019

Change the Weather History Date:

Monday, October 7, 2019

  Actual Average Record
Temperature  
Mean Temperature 77 °F 73 °F  
Max Temperature 83 °F 85 °F 93 °F (2012)
Min Temperature 71 °F 62 °F 43 °F (2010)
Degree Days  
Heating Degree Days 0    
Month to date heating degree days 0  
Since 1 July heating degree days 0  
Cooling Degree Days 12    
Month to date cooling degree days 98  
Year to date cooling degree days 2855  
Growing Degree Days 26 (Base 50)    
Moisture  
Dew Point 71 °F    
Average Humidity 89    
Maximum Humidity 97    
Minimum Humidity 70    
Precipitation  
Precipitation 0.17 in 0.15 in 0.35 in (2005)
Month to date precipitation 0.17 1.06  
Year to date precipitation 47.64 40.89  
Sea Level Pressure  
Sea Level Pressure 29.95 in    
Wind  
Wind Speed 7 mph (NE)    
Max Wind Speed 14 mph    
Max Gust Speed 22 mph    
Visibility 10 miles    
Events Rain , Thunderstorm    
T = Trace of Precipitation, MM = Missing Value Source: NWS Daily Summary

Daily Weather History Graph

Daily Weather History Graph

Search for Another Location

Airport or City:

Astronomy

Oct. 07, 2019 Rise Set
Actual Time 7:28 AM EDT 7:11 PM EDT
Civil Twilight 7:05 AM EDT 7:34 PM EDT
Nautical Twilight 6:37 AM EDT 8:02 PM EDT
Astronomical Twilight 6:09 AM EDT 8:30 PM EDT
Moon 4:01 PM EDT (10/7) 1:52 AM EDT (10/7)
Length of Visible Light 12h 29m
Length of Day
11h 42m
Waxing Gibbous, 69% of the Moon is Illuminated
Oct 7
Waxing Gibbous
Oct 13
Full
Oct 21
Last Quarter
Oct 27
New
Nov 4
First Quarter

Hourly Weather History & Observations

Time (EDT) Temp. Heat Index Dew Point Humidity Pressure Visibility Wind Dir Wind Speed Gust Speed Precip Events Conditions
12:15 AM 75.0 °F - 70.2 °F 85% 30.03 in 10.0 mi ENE 6.9 mph - N/A   Clear
12:35 AM 74.7 °F - 70.2 °F 86% 30.02 in 10.0 mi NE 5.8 mph - N/A   Clear
12:55 AM 74.5 °F - 70.2 °F 86% 30.01 in 10.0 mi NE 5.8 mph - N/A   Clear
1:15 AM 73.9 °F - 70.0 °F 87% 30.00 in 10.0 mi NE 5.8 mph - N/A   Clear
1:35 AM 73.8 °F - 70.0 °F 88% 30.00 in 10.0 mi NE 4.6 mph - N/A   Clear
2:15 AM 73.0 °F - 70.0 °F 90% 29.99 in 10.0 mi NE 5.8 mph - N/A   Clear
2:35 AM 72.5 °F - 69.8 °F 91% 29.99 in 10.0 mi NE 5.8 mph - N/A   Clear
2:55 AM 72.0 °F - 69.6 °F 92% 29.98 in 10.0 mi NE 5.8 mph - N/A   Clear
3:15 AM 72.1 °F - 69.6 °F 92% 29.98 in 10.0 mi NNE 4.6 mph - N/A   Clear
3:35 AM 71.8 °F - 69.6 °F 93% 29.97 in 10.0 mi NE 4.6 mph - N/A   Clear
3:55 AM 72.0 °F - 69.6 °F 92% 29.97 in 10.0 mi NE 4.6 mph - N/A   Clear
4:15 AM 72.1 °F - 69.6 °F 92% 29.96 in 10.0 mi NE 5.8 mph - N/A   Clear
4:35 AM 72.0 °F - 69.6 °F 92% 29.96 in 10.0 mi NE 5.8 mph - N/A   Clear
4:55 AM 72.0 °F - 69.6 °F 92% 29.96 in 10.0 mi NNE 4.6 mph - N/A   Clear
5:15 AM 71.8 °F - 69.8 °F 93% 29.96 in 10.0 mi NNE 5.8 mph - N/A   Clear
5:35 AM 72.0 °F - 69.8 °F 93% 29.96 in 10.0 mi NNE 6.9 mph - N/A   Clear
5:55 AM 72.1 °F - 69.8 °F 92% 29.96 in 10.0 mi NNE 5.8 mph - N/A   Clear
6:15 AM 72.0 °F - 69.8 °F 93% 29.96 in 10.0 mi NNE 3.5 mph - N/A   Clear
6:35 AM 71.6 °F - 69.6 °F 93% 29.97 in 10.0 mi NE 5.8 mph - N/A   Clear
6:55 AM 72.0 °F - 69.6 °F 92% 29.97 in 10.0 mi NNE 8.1 mph - N/A   Clear
7:15 AM 71.8 °F - 69.6 °F 93% 29.97 in 10.0 mi NNE 8.1 mph - N/A   Clear
7:35 AM 71.6 °F - 69.6 °F 93% 29.98 in 10.0 mi NNE 8.1 mph - N/A   Clear
7:55 AM 71.8 °F - 69.6 °F 93% 29.98 in 10.0 mi NE 5.8 mph - N/A   Clear
8:15 AM 72.1 °F - 69.8 °F 92% 29.97 in 10.0 mi NNE 9.2 mph - N/A   Clear
8:35 AM 72.9 °F - 70.0 °F 91% 29.98 in 10.0 mi NE 6.9 mph - N/A   Mostly Cloudy
8:55 AM 73.2 °F - 70.2 °F 90% 29.98 in 10.0 mi NE 5.8 mph - N/A   Overcast
9:15 AM 73.8 °F - 70.3 °F 89% 29.98 in 10.0 mi NE 5.8 mph - N/A   Overcast
9:35 AM 73.8 °F - 71.2 °F 92% 29.98 in 10.0 mi NE 5.8 mph - N/A Rain Light Rain
9:55 AM 75.0 °F - 71.6 °F 89% 29.98 in 10.0 mi NE 6.9 mph - N/A   Overcast
10:15 AM 76.1 °F - 72.0 °F 87% 29.98 in 10.0 mi NE 6.9 mph - N/A   Overcast
10:35 AM 77.4 °F - 72.1 °F 84% 29.98 in 10.0 mi NE 8.1 mph - N/A   Overcast
10:55 AM 79.3 °F - 72.7 °F 80% 29.98 in 10.0 mi ENE 8.1 mph - N/A   Overcast
11:15 AM 81.5 °F 86.7 °F 73.4 °F 76% 29.98 in 5.0 mi ENE 9.2 mph - N/A   Haze
11:35 AM 81.3 °F 86.3 °F 73.0 °F 76% 29.97 in 10.0 mi ENE 9.2 mph - N/A   Overcast
11:55 AM 81.0 °F 85.6 °F 72.7 °F 76% 29.97 in 10.0 mi ENE 8.1 mph - N/A   Mostly Cloudy
12:35 PM 79.5 °F - 72.1 °F 78% 29.97 in 10.0 mi NE 9.2 mph - N/A   Overcast
12:55 PM 81.0 °F 85.8 °F 73.0 °F 77% 29.96 in 10.0 mi NE 8.1 mph - N/A   Overcast
1:15 PM 82.6 °F 88.1 °F 72.9 °F 72% 29.95 in 10.0 mi ENE 8.1 mph - N/A   Mostly Cloudy
1:35 PM 81.5 °F 86.3 °F 72.7 °F 74% 29.95 in 10.0 mi NE 8.1 mph - N/A   Overcast
1:55 PM 81.1 °F 86.0 °F 72.9 °F 76% 29.94 in 10.0 mi NE 8.1 mph - N/A   Overcast
2:10 PM 81.5 °F 86.9 °F 73.8 °F 77% 29.93 in 10.0 mi NNE 10.4 mph - N/A   Overcast
2:35 PM 80.8 °F 86.1 °F 74.3 °F 81% 29.92 in - North 12.7 mph - N/A   Overcast
2:55 PM 79.0 °F - 74.5 °F 86% 29.91 in 10.0 mi NNE 12.7 mph - N/A Thunderstorm Overcast
3:15 PM 79.2 °F - 73.6 °F 83% 29.90 in 10.0 mi NNE 15.0 mph - N/A Thunderstorm Scattered Clouds
3:35 PM 79.9 °F - 73.4 °F 80% 29.90 in 10.0 mi NE 9.2 mph - N/A Thunderstorm Mostly Cloudy
3:55 PM 80.4 °F 85.1 °F 73.6 °F 80% 29.90 in 10.0 mi NE 13.8 mph 21.9 mph N/A   Overcast
4:15 PM 78.8 °F - 73.4 °F 83% 29.90 in 10.0 mi NE 11.5 mph - N/A Rain Light Rain
4:35 PM 78.3 °F - 74.8 °F 89% 29.90 in 10.0 mi NE 6.9 mph - N/A Thunderstorm Overcast
4:55 PM 76.3 °F - 73.6 °F 91% 29.91 in 5.0 mi ENE 11.5 mph - 0.03 in Rain Rain
5:15 PM 74.7 °F - 73.0 °F 95% 29.91 in 10.0 mi East 5.8 mph - 0.03 in Rain Light Rain
5:35 PM 74.1 °F - 72.7 °F 95% 29.91 in 5.0 mi ENE 6.9 mph - 0.05 in Rain Rain
5:55 PM 73.8 °F - 72.9 °F 97% 29.91 in 5.0 mi ENE 6.9 mph - 0.09 in Rain Light Rain
6:15 PM 73.4 °F - 72.3 °F 96% 29.91 in 10.0 mi ENE 9.2 mph - N/A Rain Light Rain
6:35 PM 73.0 °F - 71.8 °F 96% 29.91 in 10.0 mi ENE 9.2 mph - 0.01 in Rain Light Rain
6:55 PM 72.5 °F - 71.2 °F 96% 29.92 in 5.0 mi ENE 8.1 mph - 0.04 in Rain Rain
7:15 PM 72.1 °F - 71.1 °F 96% 29.91 in 10.0 mi ENE 5.8 mph - 0.01 in Rain Light Rain
7:35 PM 71.6 °F - 70.3 °F 96% 29.91 in 10.0 mi NE 9.2 mph - 0.01 in   Overcast
7:55 PM 71.1 °F - 69.3 °F 94% 29.91 in 10.0 mi NE 9.2 mph - 0.01 in   Overcast
8:15 PM 70.7 °F - 68.5 °F 93% 29.91 in 10.0 mi ENE 6.9 mph - N/A   Overcast
8:35 PM 70.7 °F - 68.7 °F 93% 29.92 in 10.0 mi NE 9.2 mph - N/A   Overcast
8:55 PM 70.9 °F - 68.4 °F 92% 29.93 in 10.0 mi NE 6.9 mph - N/A   Overcast
9:15 PM 70.9 °F - 68.5 °F 92% 29.93 in 10.0 mi NE 6.9 mph - N/A   Overcast
9:35 PM 70.9 °F - 68.9 °F 93% 29.94 in 10.0 mi NE 9.2 mph - N/A   Overcast
9:55 PM 70.9 °F - 68.9 °F 93% 29.95 in 10.0 mi NE 5.8 mph - N/A   Overcast
10:15 PM 70.9 °F - 69.3 °F 95% 29.96 in 10.0 mi NE 3.5 mph - N/A   Overcast
10:35 PM 70.9 °F - 69.3 °F 95% 29.95 in 10.0 mi NE 8.1 mph - N/A   Overcast
10:55 PM 71.1 °F - 69.6 °F 95% 29.95 in 10.0 mi NE 5.8 mph - N/A   Overcast
11:15 PM 70.9 °F - 69.6 °F 96% 29.94 in 10.0 mi NE 5.8 mph - N/A   Overcast
11:35 PM 70.7 °F - 69.6 °F 96% 29.93 in 10.0 mi NE 5.8 mph - N/A   Overcast
11:55 PM 70.7 °F - 69.6 °F 96% 29.93 in 10.0 mi NE 5.8 mph - N/A   Overcast